Stinnett, TX

12:27 PM CST on January 24, 2017 (GMT -0600)
Pampa / Mesa Vista

Weather History for KBPC - February, 2013

Change the Weather History Date:

Wednesday, February 13, 2013

  Actual Average (KBGD) Record (KBGD)
Temperature  
Mean Temperature 30 °F -  
Max Temperature 41 °F 53 °F 82 °F (1962)
Min Temperature 19 °F 30 °F 12 °F (1949)
Degree Days  
Heating Degree Days 35    
Moisture  
Dew Point 25 °F    
Average Humidity 83    
Maximum Humidity 100    
Minimum Humidity 60    
Precipitation  
Precipitation 0.00 in - - ()
Sea Level Pressure  
Sea Level Pressure 30.02 in    
Wind  
Wind Speed 8 mph (SW)    
Max Wind Speed 14 mph    
Max Gust Speed -    
Visibility 10 miles    
Events      
Averages and records for this station are not official NWS values.
T = Trace of Precipitation, MM = Missing Value Source: NWS Daily Summary

Daily Weather History Graph

Daily Weather History Graph

Search for Another Location

Airport or City:

Trip Planner

Search our weather history database for the weather conditions in past years. The results will help you decide how hot, cold, wet, or windy it might be!

Date:

Astronomy

Feb. 13, 2013 Rise Set
Actual Time 7:33 AM CST 6:24 PM CST
Civil Twilight 7:06 AM CST 6:50 PM CST
Nautical Twilight 6:36 AM CST 7:20 PM CST
Astronomical Twilight 6:07 AM CST 7:50 PM CST
Moon 9:12 AM CST (2/13) 10:18 PM CST (2/13)
Length of Visible Light 11h 43m
Length of Day
10h 50m
Waxing Crescent, 14% of the Moon is Illuminated
Feb 13
Waxing Crescent
Feb 17
First Quarter
Feb 25
Full
Mar 4
Last Quarter
Mar 11
New

Hourly Weather History & Observations

Time (CST) Temp. Windchill Dew Point Humidity Pressure Visibility Wind Dir Wind Speed Gust Speed Precip Events Conditions
12:15 AM 26.6 °F 16.2 °F 26.6 °F 100% 30.05 in 10.0 mi SW 11.5 mph - N/A   Clear
12:35 AM 26.6 °F 15.7 °F 24.8 °F 93% 30.05 in 10.0 mi SW 12.7 mph - N/A   Clear
12:55 AM 26.6 °F 16.8 °F 24.8 °F 93% 30.06 in 10.0 mi SW 10.4 mph - N/A   Clear
1:15 AM 26.6 °F 15.2 °F 24.8 °F 93% 30.05 in 10.0 mi WSW 13.8 mph - N/A   Clear
1:35 AM 26.6 °F 16.2 °F 24.8 °F 93% 30.06 in 10.0 mi WSW 11.5 mph - N/A   Clear
1:55 AM 24.8 °F 15.3 °F 23.0 °F 93% 30.05 in 10.0 mi WSW 9.2 mph - N/A   Clear
2:15 AM 24.8 °F 16.9 °F 23.0 °F 93% 30.06 in 10.0 mi WSW 6.9 mph - N/A   Clear
2:35 AM 23.0 °F 13.1 °F 23.0 °F 100% 30.05 in 10.0 mi WSW 9.2 mph - N/A   Clear
2:55 AM 23.0 °F 12.4 °F 23.0 °F 100% 30.05 in 10.0 mi WSW 10.4 mph - N/A   Clear
3:15 AM 24.8 °F 14.6 °F 23.0 °F 93% 30.05 in 10.0 mi WSW 10.4 mph - N/A   Clear
3:35 AM 24.8 °F 13.4 °F 23.0 °F 93% 30.04 in 10.0 mi WSW 12.7 mph - N/A   Clear
3:55 AM 24.8 °F 14.6 °F 23.0 °F 93% 30.03 in 10.0 mi WSW 10.4 mph - N/A   Clear
4:15 AM 24.8 °F 13.4 °F 23.0 °F 93% 30.03 in 10.0 mi SW 12.7 mph - N/A   Clear
4:35 AM 24.8 °F 14.6 °F 23.0 °F 93% 30.03 in 10.0 mi WSW 10.4 mph - N/A   Clear
4:55 AM 23.0 °F 12.4 °F 21.2 °F 93% 30.03 in 10.0 mi WSW 10.4 mph - N/A   Clear
5:15 AM 23.0 °F 11.7 °F 23.0 °F 100% 30.03 in 10.0 mi WSW 11.5 mph - N/A   Clear
5:35 AM 23.0 °F 13.1 °F 21.2 °F 93% 30.03 in 10.0 mi WSW 9.2 mph - N/A   Clear
6:15 AM 21.2 °F 10.9 °F 19.4 °F 93% 30.04 in 10.0 mi SW 9.2 mph - N/A   Clear
6:35 AM 21.2 °F 10.9 °F 19.4 °F 93% 30.04 in 10.0 mi WSW 9.2 mph - N/A   Clear
7:15 AM 19.4 °F 8.6 °F 17.6 °F 93% 30.05 in 10.0 mi SW 9.2 mph - N/A   Clear
7:35 AM 21.2 °F 10.9 °F 19.4 °F 93% 30.05 in 10.0 mi WSW 9.2 mph - N/A   Clear
7:55 AM 21.2 °F 11.7 °F 19.4 °F 93% 30.05 in 10.0 mi SW 8.1 mph - N/A   Clear
8:35 AM 23.0 °F 12.4 °F 21.2 °F 93% 30.06 in 10.0 mi WSW 10.4 mph - N/A   Clear
8:55 AM 23.0 °F 12.4 °F 21.2 °F 93% 30.06 in 10.0 mi WSW 10.4 mph - N/A   Clear
9:15 AM 24.8 °F 14.6 °F 23.0 °F 93% 30.06 in 10.0 mi WSW 10.4 mph - N/A   Clear
9:35 AM 26.6 °F 16.8 °F 23.0 °F 86% 30.07 in 10.0 mi WSW 10.4 mph - N/A   Clear
9:55 AM 26.6 °F 17.5 °F 21.2 °F 80% 30.06 in 10.0 mi WSW 9.2 mph - N/A   Clear
10:15 AM 28.4 °F 19.7 °F 21.2 °F 74% 30.06 in 10.0 mi WSW 9.2 mph - N/A   Clear
10:35 AM 28.4 °F 20.4 °F 23.0 °F 80% 30.07 in 10.0 mi WSW 8.1 mph - N/A   Clear
11:15 AM 30.2 °F 23.4 °F 24.8 °F 80% 30.06 in 10.0 mi SW 6.9 mph - N/A   Clear
11:35 AM 32.0 °F 25.6 °F 26.6 °F 80% 30.07 in 10.0 mi WSW 6.9 mph - N/A   Clear
11:55 AM 32.0 °F 25.6 °F 23.0 °F 69% 30.07 in 10.0 mi WSW 6.9 mph - N/A   Clear
12:15 PM 32.0 °F 28.7 °F 24.8 °F 75% 30.07 in 10.0 mi WSW 3.5 mph - N/A   Clear
12:35 PM 33.8 °F - 24.8 °F 70% 30.06 in 10.0 mi Calm Calm - N/A   Clear
12:55 PM 33.8 °F - 24.8 °F 70% 30.04 in 10.0 mi Calm Calm - N/A   Clear
1:15 PM 35.6 °F - 24.8 °F 65% 30.03 in 10.0 mi Calm Calm - N/A   Clear
1:35 PM 35.6 °F 31.7 °F 23.0 °F 60% 30.01 in 10.0 mi SSW 4.6 mph - N/A   Clear
1:55 PM 37.4 °F 32.8 °F 24.8 °F 60% 30.00 in 10.0 mi SW 5.8 mph - N/A   Clear
2:15 PM 37.4 °F 33.8 °F 26.6 °F 65% 29.99 in 10.0 mi South 4.6 mph - N/A   Clear
2:35 PM 37.4 °F 33.8 °F 26.6 °F 65% 29.99 in 10.0 mi WSW 4.6 mph - N/A   Clear
2:55 PM 37.4 °F 34.9 °F 26.6 °F 65% 29.98 in 10.0 mi SW 3.5 mph - N/A   Clear
3:15 PM 39.2 °F - 26.6 °F 61% 29.98 in 10.0 mi Calm Calm - N/A   Clear
3:35 PM 39.2 °F - 28.4 °F 65% 29.97 in 10.0 mi Calm Calm - N/A   Clear
3:55 PM 41.0 °F - 30.2 °F 65% 29.97 in 10.0 mi Calm Calm - N/A   Clear
4:15 PM 41.0 °F 39.0 °F 30.2 °F 65% 29.97 in 10.0 mi South 3.5 mph - N/A   Clear
4:35 PM 41.0 °F - 30.2 °F 65% 29.97 in 10.0 mi Calm Calm - N/A   Clear
4:55 PM 39.2 °F 35.9 °F 32.0 °F 75% 29.97 in 10.0 mi South 4.6 mph - N/A   Clear
5:15 PM 37.4 °F 32.8 °F 32.0 °F 81% 29.97 in 10.0 mi South 5.8 mph - N/A   Clear
5:35 PM 35.6 °F 29.9 °F 32.0 °F 87% 29.96 in 10.0 mi South 6.9 mph - N/A   Clear
5:55 PM 35.6 °F 30.7 °F 32.0 °F 87% 29.95 in 10.0 mi SSW 5.8 mph - N/A   Clear
6:15 PM 35.6 °F 30.7 °F 32.0 °F 87% 29.96 in 10.0 mi SSW 5.8 mph - N/A   Clear
6:35 PM 35.6 °F 28.0 °F 30.2 °F 81% 29.95 in 10.0 mi SSW 10.4 mph - N/A   Clear
7:15 PM 35.6 °F 28.0 °F 28.4 °F 75% 29.95 in 10.0 mi SW 10.4 mph - N/A   Clear
7:35 PM 33.8 °F 29.6 °F 28.4 °F 81% 29.96 in 10.0 mi SW 4.6 mph - N/A   Clear
7:55 PM 33.8 °F - 28.4 °F 81% 29.97 in 10.0 mi Calm Calm - N/A   Clear
8:15 PM 32.0 °F - 28.4 °F 87% 29.97 in 10.0 mi Calm Calm - N/A   Clear
8:35 PM 32.0 °F - 28.4 °F 87% 29.97 in 10.0 mi Calm Calm - N/A   Clear
8:55 PM 32.0 °F - 28.4 °F 87% 29.98 in 10.0 mi Calm Calm - N/A   Clear
9:15 PM 32.0 °F - 28.4 °F 87% 29.98 in 10.0 mi Calm Calm - N/A   Clear
9:35 PM 32.0 °F - 26.6 °F 80% 29.99 in 10.0 mi Calm Calm - N/A   Clear
9:55 PM 28.4 °F - 24.8 °F 86% 30.00 in 10.0 mi Calm Calm - N/A   Clear
10:15 PM 26.6 °F 20.0 °F 23.0 °F 86% 30.00 in 10.0 mi SSW 5.8 mph - N/A   Clear
10:35 PM 26.6 °F 19.1 °F 23.0 °F 86% 30.00 in 10.0 mi SSW 6.9 mph - N/A   Clear
10:55 PM 28.4 °F 22.2 °F 24.8 °F 86% 30.00 in 10.0 mi SSW 5.8 mph - N/A   Clear
11:15 PM 28.4 °F 23.3 °F 23.0 °F 80% 30.00 in 10.0 mi SSW 4.6 mph - N/A   Clear
11:35 PM 28.4 °F - 24.8 °F 86% 30.01 in 10.0 mi Calm Calm - N/A   Clear